BAW556 EGLL-EDDF

Flight info

Callsign BAW556
Flight time 1h 15m
Altitude 30000
Route BPK Q295 MATCH DCT REDFA DCT TACHA DCT NOLRU DCT DIXAT DIXAT1A
Aircraft A20N/M-SDE2E3FGHIRWXY/LB1

Departure

Time 2026-05-04 06:07
Airport London Heathrow Airport (EGLL)

Arrival

Time 2026-05-04 07:22
Airport Frankfurt Main Airport (EDDF)
Time Latitude Longitude Altitude Speed Heading
2026-05-04 05:54 51.47115 -0.48235 93 ft 0 kts 89°
2026-05-04 06:01 51.47115 -0.48240 93 ft 3 kts 89°
2026-05-04 06:03 51.47123 -0.48314 94 ft 0 kts 156°
2026-05-04 06:05 51.46940 -0.48354 94 ft 16 kts 180°
2026-05-04 06:05 51.46748 -0.48398 98 ft 12 kts 246°
2026-05-04 06:05 51.46734 -0.48439 96 ft 13 kts 231°
2026-05-04 06:06 51.46671 -0.48465 99 ft 2 kts 185°
2026-05-04 06:06 51.46599 -0.48468 99 ft 17 kts 181°
2026-05-04 06:06 51.46494 -0.48424 97 ft 15 kts 122°
2026-05-04 06:06 51.46481 -0.48213 97 ft 42 kts 91°
2026-05-04 06:07 51.46483 -0.47282 94 ft 125 kts 89°
2026-05-04 06:07 51.46482 -0.45628 501 ft 162 kts 90°
2026-05-04 06:07 51.46549 -0.43761 1298 ft 175 kts 71°
2026-05-04 06:07 51.47078 -0.41966 2195 ft 182 kts 63°
2026-05-04 06:08 51.47729 -0.40189 3061 ft 192 kts 52°
2026-05-04 06:08 51.48573 -0.38503 4033 ft 196 kts 49°
2026-05-04 06:08 51.49482 -0.36825 4960 ft 202 kts 48°
2026-05-04 06:08 51.50433 -0.35113 5872 ft 207 kts 48°
2026-05-04 06:09 51.51376 -0.33337 6772 ft 212 kts 57°
2026-05-04 06:09 51.52029 -0.31207 7644 ft 215 kts 69°
2026-05-04 06:11 51.58477 -0.18357 13649 ft 242 kts 18°
2026-05-04 06:11 51.60091 -0.17540 14398 ft 245 kts 15°
2026-05-04 06:13 51.72046 -0.12047 19328 ft 267 kts 15°
2026-05-04 06:14 51.76484 0.01376 22417 ft 279 kts 94°
2026-05-04 06:14 51.76497 0.04545 22923 ft 285 kts 91°
2026-05-04 06:15 51.76594 0.07755 23473 ft 289 kts 89°
2026-05-04 06:15 51.76771 0.11004 23936 ft 293 kts 87°
2026-05-04 06:15 51.77005 0.14290 24359 ft 297 kts 86°
2026-05-04 06:15 51.77270 0.17572 24758 ft 302 kts 86°
2026-05-04 06:16 51.77560 0.21002 25206 ft 305 kts 86°
2026-05-04 06:16 51.77879 0.24406 25631 ft 310 kts 83°
2026-05-04 06:16 51.78324 0.27789 26052 ft 314 kts 81°
2026-05-04 06:16 51.78845 0.31224 26465 ft 318 kts 80°
2026-05-04 06:17 51.79408 0.34705 26866 ft 322 kts 80°
2026-05-04 06:17 51.79987 0.38208 27260 ft 325 kts 80°
2026-05-04 06:17 51.80572 0.41758 27648 ft 329 kts 80°
2026-05-04 06:17 51.81158 0.45351 28049 ft 332 kts 79°
2026-05-04 06:18 51.81741 0.48971 28442 ft 334 kts 80°
2026-05-04 06:18 51.82325 0.52639 28690 ft 342 kts 81°
2026-05-04 06:18 51.82916 0.56392 28996 ft 346 kts 81°
2026-05-04 06:20 51.87328 0.84752 29987 ft 413 kts 81°
2026-05-04 06:20 51.88036 0.89339 29986 ft 427 kts 80°
2026-05-04 06:21 51.91059 1.09015 29985 ft 476 kts 81°
2026-05-04 06:22 51.92657 1.19477 29979 ft 479 kts 81°
2026-05-04 06:25 52.03578 1.93162 29977 ft 482 kts 82°
2026-05-04 06:26 52.05099 2.03731 29974 ft 485 kts 82°
2026-05-04 06:26 52.06650 2.14628 29975 ft 504 kts 82°
2026-05-04 06:27 52.10590 2.42459 29968 ft 506 kts 82°
2026-05-04 06:28 52.12267 2.53528 29969 ft 508 kts 79°
2026-05-04 06:28 52.14356 2.64547 29969 ft 510 kts 77°
2026-05-04 06:29 52.16520 2.75542 29965 ft 510 kts 77°
2026-05-04 06:29 52.18637 2.86558 29966 ft 509 kts 77°
2026-05-04 06:30 52.20698 2.97518 29945 ft 509 kts 77°
2026-05-04 06:30 52.22753 3.08570 29964 ft 509 kts 78°
2026-05-04 06:31 52.24795 3.19618 29966 ft 509 kts 77°
2026-05-04 06:31 52.25645 3.25115 29954 ft 504 kts 88°
2026-05-04 06:31 52.25645 3.30830 29961 ft 489 kts 105°
2026-05-04 06:32 52.24759 3.36072 29959 ft 472 kts 121°
2026-05-04 06:33 52.14722 3.69175 29967 ft 473 kts 119°
2026-05-04 06:34 52.12335 3.79164 29961 ft 473 kts 119°
2026-05-04 06:34 52.09942 3.89125 29959 ft 473 kts 119°
2026-05-04 06:36 52.00165 4.28797 29971 ft 474 kts 119°
2026-05-04 06:37 51.97691 4.38709 29965 ft 474 kts 119°
2026-05-04 06:37 51.95228 4.48537 29958 ft 474 kts 119°
2026-05-04 06:38 51.92740 4.58420 29967 ft 473 kts 119°
2026-05-04 06:40 51.82716 4.97807 29957 ft 477 kts 119°
2026-05-04 06:40 51.80167 5.07716 29963 ft 477 kts 119°
2026-05-04 06:41 51.77613 5.17605 29963 ft 477 kts 119°
2026-05-04 06:41 51.75050 5.27482 29964 ft 477 kts 119°
2026-05-04 06:42 51.72496 5.37277 29961 ft 478 kts 119°
2026-05-04 06:44 51.62127 5.76631 29967 ft 477 kts 119°
2026-05-04 06:44 51.59512 5.86442 29965 ft 477 kts 118°
2026-05-04 06:45 51.56889 5.96245 29965 ft 478 kts 119°
2026-05-04 06:45 51.54257 6.06043 29967 ft 478 kts 119°
2026-05-04 06:46 51.51633 6.15771 29965 ft 477 kts 119°
2026-05-04 06:46 51.49065 6.25605 29944 ft 479 kts 116°
2026-05-04 06:48 51.40781 6.59321 26965 ft 455 kts 117°
2026-05-04 06:48 51.39629 6.63956 26967 ft 455 kts 117°
2026-05-04 06:49 51.38458 6.68658 26971 ft 454 kts 117°
2026-05-04 06:50 51.30306 7.01151 25521 ft 441 kts 117°
2026-05-04 06:51 51.29159 7.05686 25012 ft 437 kts 117°
2026-05-04 06:51 51.28024 7.10162 24516 ft 433 kts 117°
2026-05-04 06:51 51.26928 7.14637 24024 ft 431 kts 115°
2026-05-04 06:51 51.25720 7.18947 23480 ft 419 kts 129°
2026-05-04 06:52 51.23806 7.22289 22850 ft 403 kts 148°
2026-05-04 06:52 51.21393 7.24331 22202 ft 388 kts 167°
2026-05-04 06:52 51.18795 7.25057 21580 ft 381 kts 177°
2026-05-04 06:52 51.16180 7.25695 20971 ft 381 kts 172°
2026-05-04 06:53 51.13611 7.26761 20367 ft 382 kts 166°
2026-05-04 06:53 51.11111 7.28197 19781 ft 382 kts 161°
2026-05-04 06:53 51.08687 7.29871 19265 ft 380 kts 159°
2026-05-04 06:53 51.06309 7.31658 18723 ft 377 kts 158°
2026-05-04 06:54 51.03953 7.33505 18157 ft 375 kts 157°
2026-05-04 06:54 51.01628 7.35371 17546 ft 373 kts 157°
2026-05-04 06:54 50.99328 7.37238 16964 ft 370 kts 156°
2026-05-04 06:54 50.97095 7.39061 16412 ft 366 kts 156°
2026-05-04 06:55 50.94835 7.40910 15829 ft 363 kts 156°
2026-05-04 06:55 50.92605 7.42736 15281 ft 360 kts 156°
2026-05-04 06:55 50.90380 7.44558 14749 ft 357 kts 156°
2026-05-04 06:55 50.88177 7.46361 14202 ft 354 kts 156°
2026-05-04 06:56 50.85999 7.48141 13670 ft 351 kts 156°
2026-05-04 06:57 50.71025 7.60337 9458 ft 340 kts 156°
2026-05-04 06:58 50.68927 7.62038 8869 ft 337 kts 156°
2026-05-04 06:58 50.66855 7.63717 8319 ft 333 kts 156°
2026-05-04 06:58 50.64839 7.65348 8053 ft 327 kts 156°
2026-05-04 06:58 50.62851 7.66962 7994 ft 304 kts 156°
2026-05-04 06:59 50.61049 7.68426 7987 ft 277 kts 156°
2026-05-04 06:59 50.59406 7.69759 7986 ft 255 kts 156°
2026-05-04 06:59 50.57867 7.71000 7999 ft 247 kts 157°
2026-05-04 06:59 50.56358 7.72210 8009 ft 247 kts 157°
2026-05-04 07:01 50.45641 7.80805 8005 ft 247 kts 157°
2026-05-04 07:01 50.44110 7.82035 8006 ft 248 kts 155°
2026-05-04 07:02 50.42669 7.83537 8006 ft 250 kts 147°
2026-05-04 07:02 50.41295 7.85215 8006 ft 250 kts 145°
2026-05-04 07:02 50.39952 7.86897 8006 ft 251 kts 145°
2026-05-04 07:02 50.38589 7.88602 8002 ft 251 kts 146°
2026-05-04 07:03 50.37217 7.90310 8013 ft 251 kts 145°
2026-05-04 07:03 50.35856 7.92004 8013 ft 250 kts 146°
2026-05-04 07:03 50.34495 7.93694 7859 ft 250 kts 145°
2026-05-04 07:03 50.33137 7.95376 7564 ft 248 kts 145°
2026-05-04 07:04 50.31790 7.97041 7275 ft 247 kts 145°
2026-05-04 07:04 50.30445 7.98704 6987 ft 245 kts 145°
2026-05-04 07:04 50.29109 8.00349 6685 ft 244 kts 145°
2026-05-04 07:04 50.27797 8.01972 6389 ft 243 kts 145°
2026-05-04 07:05 50.26504 8.03651 6081 ft 242 kts 137°
2026-05-04 07:05 50.25403 8.05654 6016 ft 243 kts 131°
2026-05-04 07:05 50.24386 8.07706 6011 ft 233 kts 130°
2026-05-04 07:05 50.23436 8.09659 6037 ft 221 kts 130°
2026-05-04 07:06 50.21574 8.13462 6030 ft 222 kts 131°
2026-05-04 07:06 50.20633 8.15379 6032 ft 223 kts 131°
2026-05-04 07:06 50.19688 8.17296 6031 ft 223 kts 131°
2026-05-04 07:07 50.18743 8.19208 6040 ft 220 kts 131°
2026-05-04 07:08 50.12717 8.31368 5415 ft 204 kts 131°
2026-05-04 07:09 50.11855 8.33110 5066 ft 202 kts 131°
2026-05-04 07:09 50.11007 8.34812 4732 ft 201 kts 131°
2026-05-04 07:09 50.10187 8.36556 4425 ft 199 kts 122°
2026-05-04 07:09 50.09943 8.38647 4052 ft 203 kts 81°
2026-05-04 07:10 50.10343 8.40744 3783 ft 201 kts 70°
2026-05-04 07:10 50.10854 8.42763 3578 ft 200 kts 69°
2026-05-04 07:12 50.14315 8.56883 3519 ft 199 kts 71°
2026-05-04 07:12 50.14800 8.58914 3527 ft 200 kts 70°
2026-05-04 07:12 50.15282 8.60940 3521 ft 200 kts 70°
2026-05-04 07:12 50.15765 8.62973 3516 ft 199 kts 70°
2026-05-04 07:13 50.16248 8.64997 3520 ft 200 kts 70°
2026-05-04 07:13 50.16731 8.67026 3521 ft 199 kts 70°
2026-05-04 07:13 50.17208 8.69054 3520 ft 199 kts 72°
2026-05-04 07:14 50.15592 8.76115 3030 ft 175 kts 131°
2026-05-04 07:14 50.14838 8.77589 3016 ft 174 kts 131°
2026-05-04 07:15 50.14080 8.79065 3027 ft 174 kts 131°
2026-05-04 07:15 50.13322 8.80537 3014 ft 174 kts 131°
2026-05-04 07:15 50.12563 8.81996 3021 ft 172 kts 131°
2026-05-04 07:15 50.11763 8.83284 2991 ft 158 kts 150°
2026-05-04 07:16 50.10753 8.83710 3018 ft 150 kts 191°
2026-05-04 07:16 50.09869 8.82971 3017 ft 147 kts 232°
2026-05-04 07:16 50.09401 8.81586 3042 ft 148 kts 248°
2026-05-04 07:16 50.09047 8.80079 3028 ft 149 kts 249°
2026-05-04 07:17 50.08704 8.78558 3035 ft 148 kts 249°
2026-05-04 07:17 50.08358 8.77043 3020 ft 149 kts 249°
2026-05-04 07:17 50.08008 8.75533 3016 ft 148 kts 249°
2026-05-04 07:17 50.07657 8.74034 2747 ft 148 kts 249°
2026-05-04 07:18 50.07298 8.72515 2308 ft 151 kts 249°
2026-05-04 07:18 50.06932 8.70964 1885 ft 154 kts 249°
2026-05-04 07:18 50.06570 8.69434 1705 ft 146 kts 249°
2026-05-04 07:18 50.06218 8.67945 1671 ft 147 kts 249°
2026-05-04 07:19 50.05853 8.66414 1263 ft 153 kts 249°
2026-05-04 07:19 50.05497 8.64920 1153 ft 147 kts 249°
2026-05-04 07:19 50.05150 8.63414 1044 ft 148 kts 250°
2026-05-04 07:19 50.04796 8.61915 906 ft 149 kts 247°
2026-05-04 07:20 50.04432 8.60420 637 ft 147 kts 249°
2026-05-04 07:20 50.04092 8.58980 427 ft 136 kts 248°
2026-05-04 07:20 50.03769 8.57679 373 ft 115 kts 250°
2026-05-04 07:20 50.03559 8.56782 363 ft 72 kts 249°
2026-05-04 07:22 50.03534 8.55714 361 ft 13 kts 26°
2026-05-04 07:22 50.03583 8.55854 362 ft 16 kts 71°
2026-05-04 07:23 50.03627 8.56034 365 ft 19 kts 69°
2026-05-04 07:23 50.03673 8.56227 364 ft 19 kts 69°
2026-05-04 07:23 50.03718 8.56415 363 ft 19 kts 70°
2026-05-04 07:23 50.03767 8.56620 364 ft 22 kts 68°
2026-05-04 07:24 50.03821 8.56849 355 ft 24 kts 70°
2026-05-04 07:24 50.03877 8.57081 359 ft 22 kts 69°
2026-05-04 07:24 50.03929 8.57300 367 ft 22 kts 70°
2026-05-04 07:24 50.03989 8.57549 361 ft 28 kts 70°
2026-05-04 07:25 50.04057 8.57838 359 ft 29 kts 70°
2026-05-04 07:26 50.04542 8.59471 360 ft 16 kts 357°
2026-05-04 07:27 50.04609 8.59465 359 ft 10 kts 355°
2026-05-04 07:27 50.04681 8.59448 362 ft 11 kts 346°
2026-05-04 07:27 50.04757 8.59414 365 ft 12 kts 339°
2026-05-04 07:27 50.04831 8.59348 359 ft 13 kts 311°
2026-05-04 07:28 50.04899 8.59275 363 ft 10 kts 339°
2026-05-04 07:28 50.04930 8.59258 360 ft 0 kts 340°